| time (UTC) | temp C | wind direction | speed KPH | gust KPH | rain 1hr cm | rain 24hr cm | rain mn cm | humidity % | barometer mb |
| 20260901070059 | 15 | 85 | 0.0 | 3.2 | 0.05 | 0.56 | 0.05 | 83 | 1022.5 |
| 20260901064559 | 15 | 0 | 0.0 | 1.6 | 0.03 | 0.53 | 0.03 | 83 | 1022.9 |
| 20260901063102 | 15 | 0 | 0.0 | 0.0 | 0.03 | 0.53 | 0.03 | 84 | 1022.3 |
| 20260901061554 | 16 | 0 | 0.0 | 1.6 | 0.03 | 0.53 | 0.03 | 82 | 1022.5 |
| 20260901060051 | 16 | 63 | 1.6 | 4.8 | 0.00 | 0.51 | 0.00 | 76 | 1022.9 |
| 20260901054557 | 16 | 0 | 0.0 | 1.6 | 0.00 | 0.51 | 0.51 | 78 | 1022.3 |
| 20260901053100 | 16 | 0 | 0.0 | 1.6 | 0.00 | 0.51 | 0.51 | 80 | 1021.9 |
| 20260901051600 | 16 | 0 | 0.0 | 1.6 | 0.00 | 0.51 | 0.51 | 79 | 1022.3 |
| 20260901050057 | 16 | 86 | 0.0 | 4.8 | 0.00 | 0.51 | 0.51 | 81 | 1022.2 |
| 20260901044605 | 16 | 86 | 0.0 | 3.2 | 0.00 | 0.51 | 0.51 | 83 | 1022.2 |
| 20260901043102 | 16 | 101 | 0.0 | 1.6 | 0.00 | 0.51 | 0.51 | 85 | 1022.4 |
| 20260901041622 | 15 | 0 | 0.0 | 1.6 | 0.00 | 0.51 | 0.51 | 90 | 1022.3 |
| 20260901040136 | 15 | 0 | 0.0 | 3.2 | 0.00 | 0.51 | 0.51 | 91 | 1022.4 |
| 20260901034558 | 15 | 126 | 0.0 | 1.6 | 0.03 | 0.51 | 0.51 | 91 | 1022.6 |
| 20260901033056 | 15 | 0 | 0.0 | 6.4 | 0.03 | 0.51 | 0.51 | 91 | 1022.5 |
| 20260901031551 | 15 | 132 | 4.8 | 11.3 | 0.13 | 0.51 | 0.51 | 91 | 1021.9 |
| 20260901030107 | 15 | 107 | 6.4 | 11.3 | 0.36 | 0.48 | 0.48 | 90 | 1023.0 |
| 20260901024557 | 15 | 78 | 0.0 | 3.2 | 0.43 | 0.48 | 0.48 | 90 | 1023.5 |
| 20260901023057 | 15 | 0 | 0.0 | 3.2 | 0.48 | 0.48 | 0.48 | 89 | 1023.6 |
| 20260901021603 | 16 | 26 | 0.0 | 4.8 | 0.36 | 0.36 | 0.36 | 77 | 1023.1 |
| 20260901020100 | 17 | 88 | 1.6 | 3.2 | 0.13 | 0.13 | 0.13 | 73 | 1022.7 |
| 20260901014555 | 20 | 7 | 1.6 | 6.4 | 0.05 | 0.05 | 0.05 | 58 | 1022.2 |
| 20260901013105 | 21 | 77 | 3.2 | 24.1 | 0.00 | 0.00 | 0.00 | 50 | 1021.3 |
| 20260901011556 | 21 | 98 | 11.3 | 17.7 | 0.00 | 0.00 | 0.00 | 50 | 1020.7 |
| 20260901010108 | 22 | 92 | 8.0 | 19.3 | 0.00 | 0.00 | 0.00 | 44 | 1020.3 |
| 20260901004600 | 24 | 100 | 6.4 | 17.7 | 0.00 | 0.00 | 0.00 | 39 | 1020.1 |
| 20260901003105 | 26 | 0 | 0.0 | 3.2 | 0.00 | 0.00 | 0.00 | 32 | 1020.1 |
| 20260901001557 | 26 | 259 | 0.0 | 8.0 | 0.00 | 0.00 | 0.00 | 31 | 1019.9 |
| 20260901000056 | 26 | 229 | 0.0 | 3.2 | 0.00 | 0.00 | 0.00 | 31 | 1019.9 |
| 20260831234602 | 26 | 287 | 1.6 | 6.4 | 0.00 | 0.00 | 0.00 | 30 | 1019.8 |
| 20260831233109 | 26 | 266 | 0.0 | 4.8 | 0.00 | 0.00 | 0.00 | 30 | 1019.9 |
| 20260831231558 | 27 | 298 | 1.6 | 16.1 | 0.00 | 0.00 | 0.00 | 30 | 1020.0 |
| 20260831230114 | 27 | 327 | 3.2 | 11.3 | 0.00 | 0.00 | 0.00 | 28 | 1020.0 |
| 20260831224556 | 27 | 258 | 1.6 | 9.7 | 0.00 | 0.00 | 0.00 | 29 | 1020.2 |
| 20260831223106 | 27 | 266 | 3.2 | 11.3 | 0.00 | 0.00 | 0.00 | 29 | 1020.3 |
| 20260831221601 | 27 | 0 | 0.0 | 4.8 | 0.00 | 0.00 | 0.00 | 29 | 1020.4 |
| 20260831220101 | 27 | 0 | 0.0 | 8.0 | 0.00 | 0.00 | 0.00 | 29 | 1020.5 |
| 20260831214607 | 27 | 314 | 3.2 | 9.7 | 0.00 | 0.00 | 0.00 | 28 | 1020.5 |
| 20260831213052 | 27 | 0 | 0.0 | 6.4 | 0.00 | 0.00 | 0.00 | 30 | 1020.8 |
| 20260831211558 | 27 | 288 | 0.0 | 6.4 | 0.00 | 0.00 | 0.00 | 30 | 1021.1 |
| 20260831210056 | 27 | 140 | 1.6 | 8.0 | 0.00 | 0.00 | 0.00 | 30 | 1021.3 |
| 20260831204558 | 27 | 272 | 0.0 | 6.4 | 0.00 | 0.00 | 0.00 | 31 | 1021.3 |
| 20260831203114 | 27 | 245 | 0.0 | 6.4 | 0.00 | 0.00 | 0.00 | 30 | 1021.5 |
| 20260831201557 | 26 | 304 | 0.0 | 4.8 | 0.00 | 0.00 | 0.00 | 31 | 1021.9 |
| 20260831200105 | 26 | 307 | 0.0 | 3.2 | 0.00 | 0.00 | 0.00 | 32 | 1022.1 |
| 20260831194627 | 26 | 308 | 0.0 | 4.8 | 0.00 | 0.00 | 0.00 | 32 | 1022.2 |
| 20260831193100 | 26 | 308 | 0.0 | 4.8 | 0.00 | 0.00 | 0.00 | 31 | 1022.4 |
| 20260831191555 | 25 | 309 | 0.0 | 6.4 | 0.00 | 0.00 | 0.00 | 33 | 1022.5 |
| 20260831184556 | 25 | 319 | 0.0 | 1.6 | 0.00 | 0.00 | 0.00 | 33 | 1023.0 |
| 20260831183106 | 25 | 0 | 0.0 | 4.8 | 0.00 | 0.00 | 0.00 | 34 | 1023.0 |
| 20260831181557 | 25 | 238 | 1.6 | 6.4 | 0.00 | 0.00 | 0.00 | 33 | 1023.0 |
| 20260831180119 | 24 | 120 | 0.0 | 3.2 | 0.00 | 0.00 | 0.00 | 34 | 1023.2 |
| 20260831174558 | 24 | 120 | 1.6 | 4.8 | 0.00 | 0.00 | 0.00 | 36 | 1023.2 |
| 20260831173058 | 23 | 119 | 1.6 | 3.2 | 0.00 | 0.00 | 0.00 | 35 | 1023.3 |
| 20260831171555 | 24 | 119 | 1.6 | 3.2 | 0.00 | 0.00 | 0.00 | 35 | 1023.3 |
| 20260831170059 | 23 | 119 | 0.0 | 3.2 | 0.00 | 0.00 | 0.00 | 35 | 1023.3 |
| 20260831164600 | 24 | 119 | 0.0 | 4.8 | 0.00 | 0.00 | 0.00 | 34 | 1023.4 |
| 20260831163101 | 24 | 0 | 0.0 | 4.8 | 0.00 | 0.00 | 0.00 | 34 | 1023.3 |
| 20260831161554 | 24 | 113 | 0.0 | 3.2 | 0.00 | 0.00 | 0.00 | 36 | 1023.0 |
| 20260831160059 | 23 | 114 | 0.0 | 4.8 | 0.00 | 0.00 | 0.00 | 36 | 1022.9 |
| 20260831154616 | 22 | 0 | 0.0 | 3.2 | 0.00 | 0.00 | 0.00 | 40 | 1022.9 |
| 20260831153058 | 22 | 0 | 0.0 | 1.6 | 0.00 | 0.00 | 0.00 | 41 | 1022.9 |
| 20260831151612 | 22 | 0 | 0.0 | 0.0 | 0.00 | 0.00 | 0.00 | 42 | 1022.7 |
| 20260831150058 | 21 | 0 | 0.0 | 0.0 | 0.00 | 0.00 | 0.00 | 43 | 1022.7 |
| 20260831144553 | 21 | 114 | 0.0 | 1.6 | 0.00 | 0.00 | 0.00 | 40 | 1023.0 |
| 20260831143058 | 21 | 0 | 3.2 | 6.4 | 0.00 | 0.00 | 0.00 | 40 | 1022.8 |
| 20260831141556 | 21 | 0 | 0.0 | 0.0 | 0.00 | 0.00 | 0.00 | 43 | 1022.9 |
| 20260831140056 | 20 | 0 | 0.0 | 0.0 | 0.00 | 0.00 | 0.00 | 47 | 1022.5 |
| 20260831134600 | 18 | 0 | 0.0 | 1.6 | 0.00 | 0.00 | 0.00 | 47 | 1022.3 |
| 20260831133103 | 18 | 113 | 0.0 | 0.0 | 0.00 | 0.00 | 0.00 | 46 | 1022.1 |
| 20260831131559 | -17 | 113 | 0.0 | 0.0 | 0.00 | 0.00 | 0.00 | 42 | 1021.9 |
| 20260831130101 | -17 | 0.0 | 0.0 | 0.00 | 0.00 | 0.00 | 1021.3 | ||
| 20260831124605 | -17 | 0.0 | 0.0 | 0.00 | 0.00 | 0.00 | 1021.4 | ||
| 20260831123056 | -17 | 0.0 | 0.0 | 0.00 | 0.00 | 0.00 | 1021.4 | ||
| 20260831121602 | -17 | 0.0 | 0.0 | 0.00 | 0.00 | 0.00 | 1021.2 | ||
| 20260831120100 | 17 | 0.0 | 0.0 | 0.00 | 0.00 | 0.00 | 15 | 1021.1 | |
| 20260831114558 | 18 | 0 | 0.0 | 1.6 | 0.00 | 0.00 | 0.00 | 44 | 1020.9 |
| 20260831113104 | 18 | 114 | 0.0 | 1.6 | 0.00 | 0.00 | 0.00 | 45 | 1021.0 |
| 20260831111555 | 17 | 114 | 0.0 | 1.6 | 0.00 | 0.00 | 0.00 | 45 | 1020.9 |
| 20260831104612 | 17 | 0 | 0.0 | 0.0 | 0.00 | 0.00 | 0.00 | 46 | 1020.9 |
| 20260831103056 | 17 | 0 | 0.0 | 0.0 | 0.00 | 0.00 | 0.00 | 46 | 1020.7 |
| 20260831101553 | 17 | 0 | 0.0 | 0.0 | 0.00 | 0.00 | 0.00 | 47 | 1020.8 |
| 20260831094557 | 17 | 0 | 0.0 | 0.0 | 0.00 | 0.00 | 0.00 | 48 | 1020.5 |
| 20260831093103 | 18 | 0 | 0.0 | 0.0 | 0.00 | 0.00 | 0.00 | 46 | 1020.4 |
| 20260831091545 | 18 | 0 | 0.0 | 3.2 | 0.00 | 0.00 | 0.00 | 46 | 1020.4 |
| 20260831090057 | 18 | 114 | 3.2 | 6.4 | 0.00 | 0.00 | 0.00 | 43 | 1020.2 |
| 20260831084607 | 18 | 0 | 0.0 | 1.6 | 0.00 | 0.00 | 0.00 | 43 | 1020.1 |
| 20260831083101 | 18 | 0 | 1.6 | 6.4 | 0.00 | 0.00 | 0.00 | 47 | 1020.2 |
| 20260831081558 | 18 | 114 | 1.6 | 3.2 | 0.00 | 0.00 | 0.00 | 47 | 1020.3 |
| 20260831080108 | 19 | 0 | 0.0 | 3.2 | 0.00 | 0.00 | 0.00 | 45 | 1020.5 |
| 20260831074609 | 18 | 114 | 3.2 | 9.7 | 0.00 | 0.00 | 0.00 | 47 | 1020.7 |
| 20260831073054 | 18 | 0 | 0.0 | 3.2 | 0.00 | 0.00 | 0.00 | 50 | 1020.9 |
| 20260831071558 | 19 | 115 | 0.0 | 6.4 | 0.00 | 0.00 | 0.00 | 52 | 1020.9 |